SCOUT B DEB, 28265

Orbit data source: Space-Track

SCOUT B DEB, 28265 is space debris in LEO originally from a launch on Fri, 10 Jun 1966 UTC launched from the Wallops Island (WLPIS). Debris objects in space refer to the collection of defunct objects orbiting the Earth. Examples of debris include non-operational satellites, rocket bodies, and fragments generated from explosions, collisions, or faulty payload assembly.

Loading next visibility...
SCOUT B DEB details
Identifier
28265, 1966-052E
Orbit
LEO
Last TLE update2 weeks ago
Origin
Flag of USUSAF SSD (US)
ManufacturerUnknown
MissionSpacecraft
Bus & MotorUnknown
MassUnknown
Launch date (UTC)
1966-06-10 (59 years ago)
Launch vehicleUnknown
Launch site
Wallops Island (WLPIS)
Object type
Payload
Rocket body
Debris
Shape & HBRUnknown
Radar Cross SectionSmall (<0.1 m²)

Expand to show TLE details & history

TLE from 2 weeks ago
0 SCOUT B DEB
1 28265U 66052E   24344.12794258  .00005784  00000-0  69827-2 0  9995
2 28265  40.8540 151.9381 1982433 232.9817 107.2801 10.61570520 13882
Epoch: 2024-12-09T03:04Z
Definitive object data (Epoch: 2024-12-09T03:04:14.238Z)
Latitude-0.00006°
Longitude27.52292°
Altitude3,163.39 km
Speed6.164 km/s
True Right ascension10h 07m 45s
True Declination0° 00' 00"
Sunlit
Object was in daylight at TLE epoch
Visualization TLE readout
Latitude-6.73728°
Longitude179.7461°
Altitude1,923.468 km
Speed7.105 km/s
Apparent Right ascension19h 16m 47s
Apparent Declination-22° 09' 21"
Sunlit
Object is in daylight
Visualization observer readout
Local Sidereal Time05:33:45
Azimuth301.432° NW
Elevation-61.855°
Doppler factor1
Orbital elements
Apogee altitude4,103.031 km
Perigee altitude634.918 km
Semi-major axis8,747.112 km
Eccentricity0.1982433
Inclination40.854°
RAAN151.9381°
Arg. of periapsis232.9817°
True anomaly127.08406°
Mean anomaly107.2801°
Eccentric anomaly117.36733°
Mean motion2.65305 °/min
BSTAR0.0069827
Orbital period135.69 mins
Loading maneuver chart data...
Loading historical data...
Loading historical data...
Loading historical data...
Loading historical data...
Loading historical data...
Loading historical data...
Loading historical data...
Other satellites on launch #52 in the year 1966 (1966-06-10 UTC)

SCOUT B DEB Visibility forecast

Observer location: undefined°, undefined

Span
Click to sort rows by Start time (UTC) header in descending order
Start Az.
Max El. time (UTC)
Max El. Az.
Max El.
End time (UTC)
End Az.
32 mins2024-12-22 09:35:59.640Z189.615° SSW2024-12-22 09:48:59.640Z125.002° SE31.826°2024-12-22 10:07:59.640Z70.396° E
41 mins2024-12-22 11:57:59.640Z236.004° WSW2024-12-22 12:13:59.640Z154.568° SSE44.358°2024-12-22 12:38:59.640Z74.224° E
44 mins2024-12-22 14:23:59.640Z269.434° W2024-12-22 14:43:59.640Z321.588° NNW44.955°2024-12-22 15:07:59.640Z94.471° ESE
42 mins2024-12-22 16:51:59.640Z286.739° WNW2024-12-22 17:14:59.640Z211.139° SW43.978°2024-12-22 17:33:59.640Z128.363° SE
33 mins2024-12-22 19:21:59.640Z287.674° WNW2024-12-22 19:40:59.640Z233.819° WSW30.723°2024-12-22 19:54:59.640Z175.157° S
|